Flag for Guyana Weather past 2 weeks in Georgetown, Guyana

Now
72 °F

Scattered clouds.


Feels Like: 65 °F
Forecast: 75 / 87 °F
Wind: No wind

Location: Georgetown/Cheddi Jagan International Airport

Current Time: Jul 31, 2014 at 6:20:36 AM

Latest Report: Jul 31, 2014 at 6:00 AM


Visibility: 5 mi

Pressure: 29.95 "Hg

Humidity: 100%

Dew point: 72 °F

Location of GeorgetownLocation

Historic Weather in Georgetown — Graph

°F

Georgetown temperature yesterday

Maximum temperature yesterday: 91 °F (at 2:30 PM)
Minimum temperature yesterday: 75 °F (at 12:00 AM)
Average temperature yesterday: 81 °F

Past Weeks' High & Low Weather Summary

 TemperatureHumidityPressure
High91 °F (Jul 26, 1:00 PM)100% (Jul 16, 5:00 AM)30.04 "Hg (Jul 16, 5:00 AM)
Low70 °F (Jul 23, 6:00 AM)52% (Jul 26, 2:00 PM)29.80 "Hg (Jul 25, 3:00 PM)
Average80 °F86%29.96 "Hg
* Reported Jul 16 5:00 AM — Jul 31 5:00 AM, Georgetown, Weather by CustomWeather, © 2014

Note: Actual official high and low records may vary slightly from our data, if they occured in-between our weather recording intervals... More about our weather records

Advertising

Georgetown weather history for previous 24 hours

 ConditionsComfort  
Time TempWeatherWind HumidityBarometerVisibility
5:00 AM
Jul 31
73 °FMild.5 mph94%29.95 "Hg5 mi
4:00 AM73 °FFog.No wind94%29.95 "Hg2 mi
2:00 AM75 °FPassing clouds.No wind94%29.95 "HgN/A
1:00 AM75 °FPassing clouds.5 mph94%29.98 "HgN/A
12:00 AM75 °FClear.No wind94%29.98 "Hg10 mi
11:00 PM
Jul 30
75 °FClear.7 mph100%29.98 "Hg10 mi
10:00 PM77 °FPassing clouds.5 mph94%29.98 "HgN/A
9:00 PM77 °FPassing clouds.5 mph94%29.95 "HgN/A
8:00 PM79 °FPassing clouds.5 mph89%29.95 "HgN/A
7:00 PM81 °FPassing clouds.7 mph84%29.89 "HgN/A
6:00 PM82 °FScattered clouds.12 mph74%29.89 "HgN/A
5:00 PM86 °FScattered clouds.9 mph62%29.89 "HgN/A
4:00 PM90 °FScattered clouds.12 mph59%29.89 "HgN/A
2:30 PM91 °FScattered clouds.9 mph59%29.92 "HgN/A
1:00 PM90 °FScattered clouds.9 mph59%29.95 "HgN/A
12:00 PM90 °FScattered clouds.12 mph59%29.98 "HgN/A
11:00 AM88 °FScattered clouds.12 mph62%30.01 "HgN/A
10:00 AM86 °FScattered clouds.7 mph70%30.01 "HgN/A
9:00 AM82 °FScattered clouds.9 mph74%30.01 "HgN/A
8:00 AM79 °FScattered clouds.5 mph89%30.01 "HgN/A
7:00 AM77 °FScattered clouds.No wind89%29.98 "HgN/A
Weather by CustomWeather, © 2014

See weather overviewHow to use our weather pages